Miscellaneous Local Product
Issued by NWS Hastings, NE

Home | Current Version | Previous Version | Text Only | Print | Product List | Glossary Off
Versions: 1 2 3 4 5 6 7 8 9 10 11 12 13 14 15 16 17 18 19 20 21 22 23 24 25 26 27 28 29 30 31 32 33 34 35 36 37 38 39 40 41 42 43 44 45 46 47 48 49 50

584
AXUS43 KGID 191102
MISGRI

GID CWA HOURLY WEATHER ROUNDUP
NATIONAL WEATHER SERVICE HASTINGS NE
500 AM CST THU JAN 19 2017

NOTE: "FAIR" INDICATES FEW OR NO CLOUDS BELOW 12,000 FEET WITH NO
SIGNIFICANT WEATHER AND/OR OBSTRUCTIONS TO VISIBILITY.

...SOUTH CENTRAL NEBRASKA...

CITY           SKY/WX    TMP DP  RH WIND       PRES   REMARKS
GRAND ISLAND   FOG       37  37 100 S13       29.73F VSB 1/2 WCI  29
HASTINGS       FOG       37  36  96 S6        29.74S VSB 1/4 WCI  32
KEARNEY        CLOUDY    37  36  93 S7        29.71S VSB 3/4 WCI  32
ORD            FOG       36  35  96 S9        29.69F VSB 1/4 WCI  29
YORK           CLEAR     36  36 100 S10       29.75F FOG     WCI  28
AURORA         FOG       37  37  99 S8        29.74S VSB 1/2 WCI  30
LEXINGTON      CLOUDY    38  37  96 S5        29.68F FOG     WCI  35
HOLDREGE       FOG       38  37  97 S5        29.70S VSB 1/2 WCI  34
HEBRON         CLOUDY    39  38  97 S6        29.76F FOG     WCI  34

...NEBRASKA PANHANDLE...

CITY           SKY/WX    TMP DP  RH WIND       PRES   REMARKS
CHADRON        CLOUDY    23  16  74 W7        29.59F WCI  15
ALLIANCE       CLOUDY    14  10  84 CALM      29.59F
SCOTTSBLUFF    CLOUDY    27  19  72 NW9       29.60F WCI  18
SIDNEY         CLOUDY    25  18  74 W10       29.62F WCI  15

...WESTERN AND NORTH CENTRAL NEBRASKA...

CITY           SKY/WX    TMP DP  RH WIND       PRES   REMARKS
VALENTINE      CLOUDY    27  22  81 SW13      29.60F WCI  16
AINSWORTH      CLEAR     31  31 100 S10       29.62F WCI  23
ONEILL         CLOUDY    37  37  99 S12       29.67F FOG     WCI  29
BROKEN BOW     FOG       37  37 100 S5        29.67F VSB 1/4 WCI  33
IMPERIAL       CLEAR     26  22  84 W6        29.63F WCI  19
NORTH PLATTE   FOG       33  32  96 W3        29.66F VSB 1/4
MCCOOK         FOG       34  34 100 SW5       29.68F VSB 1/4 WCI  30

...EASTERN NEBRASKA...

CITY           SKY/WX    TMP DP  RH WIND       PRES   REMARKS
NORFOLK        CLEAR     35  32  88 S10       29.73S WCI  27
SO SIOUX CITY  CLEAR     34  32  92 SE10      29.77F WCI  26
TEKAMAH        CLEAR     33  31  92 SE8       29.80F WCI  26
COLUMBUS       CLEAR     36  32  87 SE6       29.76F WCI  31
ALBION         CLOUDY    34  32  92 CALM      29.73S
OMAHA EPPLEY   PTCLDY    33  29  85 E3        29.81F
OFFUTT AFB     PTCLDY    35  35 100 SE7       29.80F WCI  29
MILLARD        PTCLDY    35  34  94 CALM      29.80F FOG
LINCOLN        CLEAR     34  32  92 S3        29.79F
NEBRASKA CITY  MOCLDY    35  35 100 S8        29.80F FOG     WCI  29
BEATRICE       MOCLDY    38  36  92 S7        29.77F WCI  33
FALLS CITY     FOG       34  34 100 E5        29.81F VSB 3/4 WCI  30

...NORTHERN KANSAS...

CITY           SKY/WX    TMP DP  RH WIND       PRES   REMARKS
GOODLAND       PTCLDY    24  23  96 CALM      29.63F
HILL CITY      CLOUDY    44  44 100 S6        29.68F
NORTON         FOG       39  36  87 SE3       29.67F VSB 1/4
PHILLIPSBURG   CLOUDY    43  43 100 E6        29.71S FOG
SMITH CENTER   FOG       39  39 100 E5        29.72F VSB 1
HAYS           CLOUDY    44  42  93 S9        29.70F
RUSSELL        CLOUDY    44  43  96 S9        29.70F
CONCORDIA      CLOUDY    42  42 100 S10       29.76F
SALINA           N/A    N/A N/A N/A MISG        N/A
TOPEKA         CLOUDY    43  40  89 SE5       29.82F FOG



USA.gov is the U.S. government's official web portal to all federal, state and local government web resources and services.